Hourly Weather Roundup
Issued by NWS Central Illinois

Home | Current Version | Previous Version | Text Only | Print | Product List | Glossary On
Versions: 1 2 3 4 5 6 7 8 9 10 11 12 13 14 15 16 17 18 19 20 21 22 23 24 25 26 27 28 29 30 31 32 33 34 35 36 37 38 39 40 41 42 43 44 45 46 47 48 49 50
000
NZUS43 KILX 061210
HWRILX

AREA WEATHER ROUNDUP
NATIONAL WEATHER SERVICE, LINCOLN IL
600 AM CST FRI MAR 06 2015


CITY           SKY/WX    TMP DP  RH WIND       PRES   REMARKS
BLOOMINGTON    PTCLDY     2  -2  83 S12       30.48F WCI -14
6HR MIN TEMP:  -2; 6HR MAX TEMP:   3;

CHAMPAIGN      PTCLDY    -1  -8  72 S8        30.50F WCI -15
6HR MIN TEMP:  -9; 6HR MAX TEMP:   0;

DECATUR        PTCLDY     2  -3  80 SW7       30.52S WCI -11
6HR MIN TEMP:  -9; 6HR MAX TEMP:   3;

EFFINGHAM      PTCLDY    -3  -9  73 CALM      30.57S
FLORA          MOCLDY     3   0  88 SW3       30.58R
6HR MIN TEMP:   1; 6HR MAX TEMP:   7;

GALESBURG      CLEAR      4  -1  79 SE6       30.42F WCI  -7
JACKSONVILLE   CLEAR     11   3  70 S8        30.48F WCI  -1
6HR MIN TEMP:   6; 6HR MAX TEMP:  11;

LACON          CLEAR      4  -3  71 S6        30.46F WCI  -6
6HR MIN TEMP:  -4; 6HR MAX TEMP:   4;

LAWRENCEVILLE  MOCLDY     1  -3  83 CALM      30.58S
6HR MIN TEMP:   1; 6HR MAX TEMP:   7;

LITCHFIELD     PTCLDY     6   0  78 S7        30.52F WCI  -6
$$


CITY           SKY/WX    TMP DP  RH WIND       PRES   REMARKS
LINCOLN        PTCLDY     4  -2  77 S6        30.54F WCI  -7
6HR MIN TEMP:  -1; 6HR MAX TEMP:   5;

MACOMB         CLEAR      7   2  82 S12       30.46F WCI  -9
MATTOON        PTCLDY     4  -2  76 S7        30.51F WCI  -8
6HR MIN TEMP:  -6; 6HR MAX TEMP:   5;

MT CARMEL AP   MOCLDY     3   0  85 CALM      30.57F
OLNEY-NOBLE AP PTCLDY     0  -4  85 CALM      30.58S
PARIS          PTCLDY    -3  -6  85 CALM      30.54F
6HR MIN TEMP:  -8; 6HR MAX TEMP:  -2;

PEORIA         FAIR       6  -1  73 S8        30.48F WCI  -7
6HR MIN TEMP:   3; 6HR MAX TEMP:   7;

PONTIAC        PTCLDY     3  -2  80 S8        30.49F WCI -11
RANTOUL        PTCLDY    -6 -10  83 SE5       30.51F WCI -18
6HR MIN TEMP:  -9; 6HR MAX TEMP:  -1;

ROBINSON       PTCLDY    -6  -9  86 CALM      30.58S
6HR MIN TEMP:  -7; 6HR MAX TEMP:   1;

SPRINGFIELD    CLEAR      9   0  67 S14       30.50F WCI  -7
6HR MIN TEMP:   0; 6HR MAX TEMP:   9;

TAYLORVILLE    FAIR       5   1  85 S9        30.52F WCI  -9
$$

...REGIONAL REPORTS...


CITY           SKY/WX    TMP DP  RH WIND       PRES   REMARKS
CHICAGO O`HARE MOCLDY     5  -1  76 S9        30.43F WCI  -9
KANKAKEE       PTCLDY     1  -4  80 S7        30.50S WCI -12
MOLINE         CLEAR      8  -1  66 S7        30.40F WCI  -3
MOUNT VERNON   CLEAR      0  -6  78 CALM      30.57S
PITTSFIELD     PTCLDY    11   5  79 S6        30.47F WCI   1
QUINCY         CLEAR     13   4  67 S9        30.42F WCI   1
ROCKFORD       PTCLDY     0  -7  72 S5        30.42F WCI -10
$$


CITY           SKY/WX    TMP DP  RH WIND       PRES   REMARKS
BURLINGTON     CLEAR     10   2  69 S12       30.39F WCI  -5
CEDAR RAPIDS   CLOUDY     9   3  77 S15       30.27F WCI  -8
DES MOINES     PTCLDY    23  12  62 S13       30.22S WCI  11
KIRKSVILLE     CLOUDY    20  11  68 S16       30.34F WCI   6
OTTUMWA        CLOUDY    16   8  71 S17       30.28F WCI   0
ST LOUIS       FAIR      17   6  62 S9        30.52F WCI   6
$$


CITY           SKY/WX    TMP DP  RH WIND       PRES   REMARKS
TERRE HAUTE    PTCLDY    -4  -9  79 CALM      30.55F
EVANSVILLE     PTCLDY     2  -5  72 CALM      30.59F
INDIANAPOLIS   PTCLDY     3  -3  76 SW5       30.51F WCI  -6
LAFAYETTE      PTCLDY    -3  -6  87 CALM      30.53F
MADISON        PTCLDY     2  -5  72 S7        30.35F WCI -11
MILWAUKEE      PTCLDY     0  -8  69 SW8       30.38F WCI -14
$$





USA.gov is the U.S. government's official web portal to all federal, state and local government web resources and services.